Year,Month,Day,Hour,Minute,Value (Times are PST for temperature in C)
2015,04,21,00,00,10.40
2015,04,21,00,01,10.40
2015,04,21,00,02,10.50
2015,04,21,00,03,10.50
2015,04,21,00,04,10.50
2015,04,21,00,05,10.50
2015,04,21,00,06,10.50
2015,04,21,00,07,10.50
2015,04,21,00,08,10.50
2015,04,21,00,09,10.60
2015,04,21,00,10,10.60
2015,04,21,00,11,10.60
2015,04,21,00,12,10.60
2015,04,21,00,13,10.50
2015,04,21,00,14,10.50
2015,04,21,00,15,10.50
2015,04,21,00,16,10.40
2015,04,21,00,17,10.40
2015,04,21,00,18,10.40
2015,04,21,00,19,10.40
2015,04,21,00,20,10.40
2015,04,21,00,21,10.40
2015,04,21,00,22,10.40
2015,04,21,00,23,10.50
2015,04,21,00,24,10.50
2015,04,21,00,25,10.40
2015,04,21,00,26,10.40
2015,04,21,00,27,10.40
2015,04,21,00,28,10.40
2015,04,21,00,29,10.40
2015,04,21,00,30,10.40
2015,04,21,00,31,10.40
2015,04,21,00,32,10.40
2015,04,21,00,33,10.40
2015,04,21,00,34,10.40
2015,04,21,00,35,10.30
2015,04,21,00,36,10.30
2015,04,21,00,37,10.30
2015,04,21,00,38,10.30
2015,04,21,00,39,10.30
2015,04,21,00,40,10.30
2015,04,21,00,41,10.30
2015,04,21,00,42,10.30
2015,04,21,00,43,10.30
2015,04,21,00,44,10.30
2015,04,21,00,45,10.30
2015,04,21,00,46,10.30
2015,04,21,00,47,10.30
2015,04,21,00,48,10.30
2015,04,21,00,49,10.30
2015,04,21,00,50,10.30
2015,04,21,00,51,10.30
2015,04,21,00,52,10.20
2015,04,21,00,53,10.20
2015,04,21,00,54,10.20
2015,04,21,00,55,10.20
2015,04,21,00,56,10.20
2015,04,21,00,57,10.20
2015,04,21,00,58,10.20
2015,04,21,00,59,10.20
2015,04,21,01,00,10.10
2015,04,21,01,01,10.10
2015,04,21,01,02,10.10
2015,04,21,01,03,10.10
2015,04,21,01,04,10.10
2015,04,21,01,05,10.20
2015,04,21,01,06,10.20
2015,04,21,01,07,10.20
2015,04,21,01,08,10.20
2015,04,21,01,09,10.20
2015,04,21,01,10,10.20
2015,04,21,01,11,10.20
2015,04,21,01,12,10.20
2015,04,21,01,13,10.20
2015,04,21,01,14,10.20
2015,04,21,01,15,10.20
2015,04,21,01,16,10.20
2015,04,21,01,17,10.20
2015,04,21,01,18,10.20
2015,04,21,01,19,10.30
2015,04,21,01,20,10.30
2015,04,21,01,21,10.20
2015,04,21,01,22,10.20
2015,04,21,01,23,10.20
2015,04,21,01,24,10.20
2015,04,21,01,25,10.20
2015,04,21,01,26,10.20
2015,04,21,01,27,10.20
2015,04,21,01,28,10.10
2015,04,21,01,29,10.10
2015,04,21,01,30,10.10
2015,04,21,01,31,10.10
2015,04,21,01,32,10.10
2015,04,21,01,33,10.00
2015,04,21,01,34,10.00
2015,04,21,01,35,10.00
2015,04,21,01,36,10.00
2015,04,21,01,37,9.90
2015,04,21,01,38,9.90
2015,04,21,01,39,9.90
2015,04,21,01,40,9.90
2015,04,21,01,41,9.80
2015,04,21,01,42,9.80
2015,04,21,01,43,9.80
2015,04,21,01,44,9.80
2015,04,21,01,45,9.80
2015,04,21,01,46,9.70
2015,04,21,01,47,9.70
2015,04,21,01,48,9.70
2015,04,21,01,49,9.70
2015,04,21,01,50,9.60
2015,04,21,01,51,9.60
2015,04,21,01,52,9.60
2015,04,21,01,53,9.60
2015,04,21,01,54,9.60
2015,04,21,01,55,9.60
2015,04,21,01,56,9.60
2015,04,21,01,57,9.60
2015,04,21,01,58,9.50
2015,04,21,01,59,9.50
2015,04,21,02,00,9.50
2015,04,21,02,01,9.50
2015,04,21,02,02,9.50
2015,04,21,02,03,9.50
2015,04,21,02,04,9.50
2015,04,21,02,05,9.40
2015,04,21,02,06,9.40
2015,04,21,02,07,9.40
2015,04,21,02,08,9.40
2015,04,21,02,09,9.40
2015,04,21,02,10,9.40
2015,04,21,02,11,9.50
2015,04,21,02,12,9.50
2015,04,21,02,13,9.50
2015,04,21,02,14,9.50
2015,04,21,02,15,9.50
2015,04,21,02,16,9.50
2015,04,21,02,17,9.50
2015,04,21,02,18,9.60
2015,04,21,02,19,9.50
2015,04,21,02,20,9.50
2015,04,21,02,21,9.50
2015,04,21,02,22,9.50
2015,04,21,02,23,9.50
2015,04,21,02,24,9.50
2015,04,21,02,25,9.50
2015,04,21,02,26,9.50
2015,04,21,02,27,9.50
2015,04,21,02,28,9.40
2015,04,21,02,29,9.40
2015,04,21,02,30,9.40
2015,04,21,02,31,9.40
2015,04,21,02,32,9.40
2015,04,21,02,33,9.40
2015,04,21,02,34,9.40
2015,04,21,02,35,9.30
2015,04,21,02,36,9.30
2015,04,21,02,37,9.30
2015,04,21,02,38,9.30
2015,04,21,02,39,9.30
2015,04,21,02,40,9.30
2015,04,21,02,41,9.30
2015,04,21,02,42,9.30
2015,04,21,02,43,9.30
2015,04,21,02,44,9.30
2015,04,21,02,45,9.20
2015,04,21,02,46,9.20
2015,04,21,02,47,9.20
2015,04,21,02,48,9.20
2015,04,21,02,49,9.20
2015,04,21,02,50,9.20
2015,04,21,02,51,9.20
2015,04,21,02,52,9.20
2015,04,21,02,53,9.20
2015,04,21,02,54,9.20
2015,04,21,02,55,9.20
2015,04,21,02,56,9.20
2015,04,21,02,57,9.20
2015,04,21,02,58,9.20
2015,04,21,02,59,9.20
2015,04,21,03,00,9.20
2015,04,21,03,01,9.20
2015,04,21,03,02,9.10
2015,04,21,03,06,9.10
2015,04,21,03,07,9.10
2015,04,21,03,08,9.10
2015,04,21,03,09,9.10
2015,04,21,03,10,9.10
2015,04,21,03,11,9.10
2015,04,21,03,12,9.00
2015,04,21,03,13,9.00
2015,04,21,03,14,9.00
2015,04,21,03,15,9.00
2015,04,21,03,16,9.00
2015,04,21,03,17,9.00
2015,04,21,03,18,8.90
2015,04,21,03,19,8.90
2015,04,21,03,20,8.90
2015,04,21,03,21,8.90
2015,04,21,03,22,8.90
2015,04,21,03,23,8.90
2015,04,21,03,24,8.90
2015,04,21,03,25,8.90
2015,04,21,03,26,8.90
2015,04,21,03,27,8.90
2015,04,21,03,28,8.90
2015,04,21,03,29,8.90
2015,04,21,03,30,8.90
2015,04,21,03,31,8.90
2015,04,21,03,32,8.90
2015,04,21,03,33,8.90
2015,04,21,03,34,8.90
2015,04,21,03,35,8.90
2015,04,21,03,36,8.90
2015,04,21,03,37,8.90
2015,04,21,03,38,8.90
2015,04,21,03,39,8.90
2015,04,21,03,40,8.90
2015,04,21,03,41,8.90
2015,04,21,03,42,8.90
2015,04,21,03,43,8.90
2015,04,21,03,44,8.90
2015,04,21,03,45,8.90
2015,04,21,03,46,8.90
2015,04,21,03,47,8.90
2015,04,21,03,48,8.90
2015,04,21,03,49,9.00
2015,04,21,03,50,9.00
2015,04,21,03,51,9.00
2015,04,21,03,52,9.00
2015,04,21,03,53,9.00
2015,04,21,03,54,9.00
2015,04,21,03,55,9.00
2015,04,21,03,56,9.10
2015,04,21,03,57,9.00
2015,04,21,03,58,9.00
2015,04,21,03,59,9.00
2015,04,21,04,00,9.00
2015,04,21,04,01,9.00
2015,04,21,04,02,8.90
2015,04,21,04,03,8.90
2015,04,21,04,04,8.90
2015,04,21,04,05,8.90
2015,04,21,04,06,8.90
2015,04,21,04,07,8.80
2015,04,21,04,08,8.80
2015,04,21,04,09,8.80
2015,04,21,04,10,8.80
2015,04,21,04,11,8.80
2015,04,21,04,12,8.70
2015,04,21,04,13,8.70
2015,04,21,04,14,8.70
2015,04,21,04,15,8.70
2015,04,21,04,16,8.70
2015,04,21,04,17,8.70
2015,04,21,04,18,8.70
2015,04,21,04,19,8.70
2015,04,21,04,20,8.60
2015,04,21,04,21,8.60
2015,04,21,04,22,8.60
2015,04,21,04,23,8.60
2015,04,21,04,24,8.60
2015,04,21,04,25,8.60
2015,04,21,04,26,8.60
2015,04,21,04,27,8.60
2015,04,21,04,28,8.60
2015,04,21,04,29,8.60
2015,04,21,04,30,8.60
2015,04,21,04,31,8.60
2015,04,21,04,32,8.60
2015,04,21,04,33,8.60
2015,04,21,04,34,8.60
2015,04,21,04,35,8.60
2015,04,21,04,36,8.60
2015,04,21,04,37,8.60
2015,04,21,04,38,8.60
2015,04,21,04,39,8.60
2015,04,21,04,40,8.60
2015,04,21,04,41,8.60
2015,04,21,04,42,8.60
2015,04,21,04,43,8.60
2015,04,21,04,44,8.60
2015,04,21,04,45,8.60
2015,04,21,04,46,8.60
2015,04,21,04,47,8.60
2015,04,21,04,48,8.60
2015,04,21,04,49,8.60
2015,04,21,04,50,8.60
2015,04,21,04,51,8.60
2015,04,21,04,52,8.60
2015,04,21,04,53,8.60
2015,04,21,04,54,8.60
2015,04,21,04,55,8.60
2015,04,21,04,56,8.60
2015,04,21,04,57,8.60
2015,04,21,04,58,8.50
2015,04,21,04,59,8.50
2015,04,21,05,00,8.50
2015,04,21,05,01,8.50
2015,04,21,05,02,8.50
2015,04,21,05,03,8.50
2015,04,21,05,04,8.50
2015,04,21,05,05,8.50
2015,04,21,05,06,8.50
2015,04,21,05,07,8.50
2015,04,21,05,08,8.40
2015,04,21,05,09,8.40
2015,04,21,05,10,8.40
2015,04,21,05,11,8.40
2015,04,21,05,12,8.30
2015,04,21,05,13,8.30
2015,04,21,05,14,8.30
2015,04,21,05,15,8.30
2015,04,21,05,16,8.30
2015,04,21,05,17,8.30
2015,04,21,05,18,8.30
2015,04,21,05,19,8.30
2015,04,21,05,20,8.30
2015,04,21,05,21,8.30
2015,04,21,05,22,8.30
2015,04,21,05,23,8.30
2015,04,21,05,24,8.20
2015,04,21,05,25,8.20
2015,04,21,05,26,8.20
2015,04,21,05,27,8.20
2015,04,21,05,28,8.20
2015,04,21,05,29,8.20
2015,04,21,05,30,8.20
2015,04,21,05,31,8.20
2015,04,21,05,32,8.20
2015,04,21,05,33,8.20
2015,04,21,05,34,8.20
2015,04,21,05,35,8.20
2015,04,21,05,36,8.20
2015,04,21,05,37,8.20
2015,04,21,05,38,8.20
2015,04,21,05,39,8.20
2015,04,21,05,40,8.20
2015,04,21,05,41,8.20
2015,04,21,05,42,8.20
2015,04,21,05,43,8.20
2015,04,21,05,44,8.20
2015,04,21,05,45,8.20
2015,04,21,05,46,8.20
2015,04,21,05,47,8.20
2015,04,21,05,48,8.20
2015,04,21,05,49,8.20
2015,04,21,05,50,8.20
2015,04,21,05,51,8.20
2015,04,21,05,52,8.20
2015,04,21,05,53,8.20
2015,04,21,05,54,8.20
2015,04,21,05,55,8.20
2015,04,21,05,56,8.20
2015,04,21,05,57,8.20
2015,04,21,05,58,8.10
2015,04,21,05,59,8.10
2015,04,21,06,00,8.10
2015,04,21,06,01,8.10
2015,04,21,06,02,8.10
2015,04,21,06,03,8.10
2015,04,21,06,04,8.10
2015,04,21,06,05,8.10
2015,04,21,06,06,8.20
2015,04,21,06,07,8.20
2015,04,21,06,08,8.20
2015,04,21,06,09,8.20
2015,04,21,06,10,8.20
2015,04,21,06,11,8.20
2015,04,21,06,12,8.20
2015,04,21,06,13,8.20
2015,04,21,06,14,8.20
2015,04,21,06,15,8.20
2015,04,21,06,16,8.20
2015,04,21,06,17,8.20
2015,04,21,06,18,8.30
2015,04,21,06,19,8.30
2015,04,21,06,20,8.30
2015,04,21,06,21,8.30
2015,04,21,06,22,8.30
2015,04,21,06,23,8.40
2015,04,21,06,24,8.40
2015,04,21,06,25,8.40
2015,04,21,06,26,8.40
2015,04,21,06,27,8.50
2015,04,21,06,28,8.50
2015,04,21,06,29,8.50
2015,04,21,06,30,8.60
2015,04,21,06,31,8.60
2015,04,21,06,32,8.60
2015,04,21,06,33,8.60
2015,04,21,06,34,8.60
2015,04,21,06,35,8.60
2015,04,21,06,36,8.60
2015,04,21,06,37,8.60
2015,04,21,06,38,8.70
2015,04,21,06,39,8.70
2015,04,21,06,40,8.70
2015,04,21,06,41,8.70
2015,04,21,06,42,8.80
2015,04,21,06,43,8.80
2015,04,21,06,44,8.80
2015,04,21,06,45,8.90
2015,04,21,06,46,8.90
2015,04,21,06,47,8.90
2015,04,21,06,48,8.90
2015,04,21,06,49,9.00
2015,04,21,06,50,9.00
2015,04,21,06,51,9.00
2015,04,21,06,52,9.00
2015,04,21,06,53,9.10
2015,04,21,06,54,9.10
2015,04,21,06,55,9.10
2015,04,21,06,56,9.10
2015,04,21,06,57,9.10
2015,04,21,06,58,9.20
2015,04,21,06,59,9.20
2015,04,21,07,00,9.20
2015,04,21,07,01,9.30
2015,04,21,07,02,9.30
2015,04,21,07,03,9.30
2015,04,21,07,04,9.30
2015,04,21,07,05,9.30
2015,04,21,07,06,9.30
2015,04,21,07,07,9.40
2015,04,21,07,08,9.40
2015,04,21,07,09,9.50
2015,04,21,07,10,9.50
2015,04,21,07,11,9.60
2015,04,21,07,12,9.60
2015,04,21,07,13,9.60
2015,04,21,07,14,9.60
2015,04,21,07,15,9.70
2015,04,21,07,16,9.80
2015,04,21,07,17,9.90
2015,04,21,07,18,10.00
2015,04,21,07,19,10.00
2015,04,21,07,20,10.10
2015,04,21,07,21,10.10
2015,04,21,07,22,10.10
2015,04,21,07,23,10.10
2015,04,21,07,24,10.20
2015,04,21,07,25,10.20
2015,04,21,07,26,10.30
2015,04,21,07,27,10.30
2015,04,21,07,28,10.40
2015,04,21,07,29,10.40
2015,04,21,07,30,10.40
2015,04,21,07,31,10.40
2015,04,21,07,32,10.50
2015,04,21,07,33,10.50
2015,04,21,07,34,10.50
2015,04,21,07,35,10.60
2015,04,21,07,36,10.60
2015,04,21,07,37,10.60
2015,04,21,07,38,10.60
2015,04,21,07,39,10.70
2015,04,21,07,40,10.70
2015,04,21,07,41,10.70
2015,04,21,07,42,10.80
2015,04,21,07,43,10.80
2015,04,21,07,44,10.80
2015,04,21,07,45,10.90
2015,04,21,07,46,10.90
2015,04,21,07,47,11.00
2015,04,21,07,48,11.10
2015,04,21,07,49,11.20
2015,04,21,07,50,11.20
2015,04,21,07,51,11.20
2015,04,21,07,52,11.30
2015,04,21,07,53,11.30
2015,04,21,07,54,11.40
2015,04,21,07,55,11.40
2015,04,21,07,56,11.50
2015,04,21,07,57,11.60
2015,04,21,07,58,11.70
2015,04,21,07,59,11.70
2015,04,21,08,00,11.80
2015,04,21,08,01,11.80
2015,04,21,08,02,11.80
2015,04,21,08,03,11.90
2015,04,21,08,04,11.90
2015,04,21,08,05,11.90
2015,04,21,08,06,11.90
2015,04,21,08,07,11.90
2015,04,21,08,08,12.00
2015,04,21,08,09,12.00
2015,04,21,08,10,12.10
2015,04,21,08,11,12.20
2015,04,21,08,12,12.20
2015,04,21,08,13,12.30
2015,04,21,08,14,12.30
2015,04,21,08,15,12.30
2015,04,21,08,16,12.40
2015,04,21,08,17,12.40
2015,04,21,08,18,12.40
2015,04,21,08,19,12.40
2015,04,21,08,20,12.40
2015,04,21,08,21,12.50
2015,04,21,08,22,12.50
2015,04,21,08,23,12.60
2015,04,21,08,24,12.60
2015,04,21,08,25,12.70
2015,04,21,08,26,12.70
2015,04,21,08,27,12.70
2015,04,21,08,28,12.70
2015,04,21,08,29,12.70
2015,04,21,08,30,12.70
2015,04,21,08,31,12.70
2015,04,21,08,32,12.70
2015,04,21,08,33,12.70
2015,04,21,08,34,12.70
2015,04,21,08,35,12.70
2015,04,21,08,36,12.60
2015,04,21,08,37,12.50
2015,04,21,08,38,12.50
2015,04,21,08,39,12.50
2015,04,21,08,40,12.50
2015,04,21,08,41,12.50
2015,04,21,08,42,12.50
2015,04,21,08,43,12.60
2015,04,21,08,44,12.70
2015,04,21,08,45,12.80
2015,04,21,08,46,12.90
2015,04,21,08,47,13.00
2015,04,21,08,48,13.10
2015,04,21,08,49,13.20
2015,04,21,08,50,13.30
2015,04,21,08,51,13.30
2015,04,21,08,52,13.30
2015,04,21,08,53,13.40
2015,04,21,08,54,13.50
2015,04,21,08,55,13.60
2015,04,21,08,56,13.60
2015,04,21,08,57,13.70
2015,04,21,08,58,13.90
2015,04,21,08,59,14.00
2015,04,21,09,00,14.10
2015,04,21,09,01,14.20
2015,04,21,09,02,14.30
2015,04,21,09,03,14.40
2015,04,21,09,04,14.60
2015,04,21,09,05,14.70
2015,04,21,09,06,14.70
2015,04,21,09,07,14.80
2015,04,21,09,08,14.70
2015,04,21,09,09,14.70
2015,04,21,09,10,14.70
2015,04,21,09,11,14.80
2015,04,21,09,12,14.90
2015,04,21,09,13,14.90
2015,04,21,09,14,14.90
2015,04,21,09,15,14.80
2015,04,21,09,16,14.70
2015,04,21,09,17,14.60
2015,04,21,09,18,14.60
2015,04,21,09,19,14.60
2015,04,21,09,20,14.60
2015,04,21,09,21,14.60
2015,04,21,09,22,14.70
2015,04,21,09,23,14.60
2015,04,21,09,24,14.60
2015,04,21,09,25,14.50
2015,04,21,09,26,14.40
2015,04,21,09,27,14.30
2015,04,21,09,28,14.30
2015,04,21,09,29,14.20
2015,04,21,09,30,14.20
2015,04,21,09,31,14.20
2015,04,21,09,32,14.20
2015,04,21,09,33,14.20
2015,04,21,09,34,14.10
2015,04,21,09,35,13.90
2015,04,21,09,36,13.80
2015,04,21,09,37,13.70
2015,04,21,09,38,13.60
2015,04,21,09,39,13.60
2015,04,21,09,40,13.60
2015,04,21,09,41,13.50
2015,04,21,09,42,13.50
2015,04,21,09,43,13.50
2015,04,21,09,44,13.40
2015,04,21,09,45,13.40
2015,04,21,09,46,13.50
2015,04,21,09,47,13.60
2015,04,21,09,48,13.70
2015,04,21,09,49,13.80
2015,04,21,09,50,13.80
2015,04,21,09,51,13.90
2015,04,21,09,52,14.10
2015,04,21,09,53,14.20
2015,04,21,09,54,14.40
2015,04,21,09,55,14.50
2015,04,21,09,56,14.60
2015,04,21,09,57,14.70
2015,04,21,09,58,14.80
2015,04,21,09,59,15.00
2015,04,21,10,00,15.00
2015,04,21,10,01,15.00
2015,04,21,10,02,15.20
2015,04,21,10,03,15.30
2015,04,21,10,04,15.30
2015,04,21,10,05,15.40
2015,04,21,10,06,15.50
2015,04,21,10,07,15.60
2015,04,21,10,08,15.60
2015,04,21,10,09,15.70
2015,04,21,10,10,15.70
2015,04,21,10,11,15.80
2015,04,21,10,12,15.80
2015,04,21,10,13,15.90
2015,04,21,10,14,15.80
2015,04,21,10,15,15.80
2015,04,21,10,16,15.80
2015,04,21,10,17,15.80
2015,04,21,10,18,15.80
2015,04,21,10,19,15.90
2015,04,21,10,20,15.90
2015,04,21,10,21,15.90
2015,04,21,10,22,15.90
2015,04,21,10,23,15.80
2015,04,21,10,24,15.70
2015,04,21,10,25,15.70
2015,04,21,10,26,15.70
2015,04,21,10,27,15.70
2015,04,21,10,28,15.80
2015,04,21,10,29,15.90
2015,04,21,10,30,16.00
2015,04,21,10,31,16.10
2015,04,21,10,32,16.10
2015,04,21,10,33,16.20
2015,04,21,10,34,16.20
2015,04,21,10,35,16.30
2015,04,21,10,36,16.30
2015,04,21,10,37,16.30
2015,04,21,10,38,16.30
2015,04,21,10,39,16.30
2015,04,21,10,40,16.30
2015,04,21,10,41,16.30
2015,04,21,10,42,16.30
2015,04,21,10,43,16.30
2015,04,21,10,44,16.40
2015,04,21,10,45,16.40
2015,04,21,10,46,16.50
2015,04,21,10,47,16.70
2015,04,21,10,48,16.80
2015,04,21,10,49,16.90
2015,04,21,10,50,17.00
2015,04,21,10,51,17.10
2015,04,21,10,52,17.10
2015,04,21,10,53,17.20
2015,04,21,10,54,17.20
2015,04,21,10,55,17.30
2015,04,21,10,56,17.40
2015,04,21,10,57,17.50
2015,04,21,10,58,17.60
2015,04,21,10,59,17.60
2015,04,21,11,00,17.70
2015,04,21,11,01,17.60
2015,04,21,11,02,17.50
2015,04,21,11,03,17.30
2015,04,21,11,04,17.30
2015,04,21,11,05,17.30
2015,04,21,11,06,17.30
2015,04,21,11,07,17.30
2015,04,21,11,08,17.30
2015,04,21,11,09,17.30
2015,04,21,11,10,17.30
2015,04,21,11,11,17.30
2015,04,21,11,12,17.30
2015,04,21,11,13,17.30
2015,04,21,11,14,17.20
2015,04,21,11,15,17.10
2015,04,21,11,16,17.00
2015,04,21,11,17,16.90
2015,04,21,11,18,16.80
2015,04,21,11,19,16.70
2015,04,21,11,20,16.60
2015,04,21,11,21,16.60
2015,04,21,11,22,16.50
2015,04,21,11,23,16.50
2015,04,21,11,24,16.30
2015,04,21,11,25,16.20
2015,04,21,11,26,16.10
2015,04,21,11,27,16.10
2015,04,21,11,28,16.10
2015,04,21,11,29,16.00
2015,04,21,11,30,16.00
2015,04,21,11,31,16.00
2015,04,21,11,32,16.00
2015,04,21,11,33,16.10
2015,04,21,11,34,16.10
2015,04,21,11,35,16.10
2015,04,21,11,36,16.10
2015,04,21,11,37,16.20
2015,04,21,11,38,16.20
2015,04,21,11,39,16.20
2015,04,21,11,40,16.20
2015,04,21,11,41,16.20
2015,04,21,11,42,16.20
2015,04,21,11,43,16.30
2015,04,21,11,44,16.30
2015,04,21,11,45,16.40
2015,04,21,11,46,16.50
2015,04,21,11,47,16.50
2015,04,21,11,48,16.50
2015,04,21,11,49,16.50
2015,04,21,11,50,16.30
2015,04,21,11,51,16.30
2015,04,21,11,52,16.20
2015,04,21,11,53,16.20
2015,04,21,11,54,16.20
2015,04,21,11,55,16.20
2015,04,21,11,56,16.30
2015,04,21,11,57,16.30
2015,04,21,11,58,16.40
2015,04,21,11,59,16.40
2015,04,21,12,00,16.40
2015,04,21,12,01,16.40
2015,04,21,12,02,16.30
2015,04,21,12,03,16.30
2015,04,21,12,04,16.20
2015,04,21,12,05,16.20
2015,04,21,12,06,16.10
2015,04,21,12,07,16.00
2015,04,21,12,08,16.00
2015,04,21,12,09,16.00
2015,04,21,12,10,16.10
2015,04,21,12,11,16.10
2015,04,21,12,12,16.10
2015,04,21,12,13,16.10
2015,04,21,12,14,16.10
2015,04,21,12,15,16.20
2015,04,21,12,16,16.20
2015,04,21,12,17,16.20
2015,04,21,12,18,16.30
2015,04,21,12,19,16.30
2015,04,21,12,20,16.30
2015,04,21,12,21,16.30
2015,04,21,12,22,16.20
2015,04,21,12,23,16.20
2015,04,21,12,24,16.10
2015,04,21,12,25,16.00
2015,04,21,12,26,15.90
2015,04,21,12,27,15.90
2015,04,21,12,28,15.80
2015,04,21,12,29,15.80
2015,04,21,12,30,15.90
2015,04,21,12,31,15.90
2015,04,21,12,32,16.00
2015,04,21,12,33,16.00
2015,04,21,12,34,16.10
2015,04,21,12,35,16.10
2015,04,21,12,36,16.10
2015,04,21,12,37,16.10
2015,04,21,12,38,16.10
2015,04,21,12,39,16.10
2015,04,21,12,40,16.10
2015,04,21,12,41,16.20
2015,04,21,12,42,16.20
2015,04,21,12,43,16.20
2015,04,21,12,44,16.20
2015,04,21,12,45,16.20
2015,04,21,12,46,16.30
2015,04,21,12,47,16.30
2015,04,21,12,48,16.20
2015,04,21,12,49,16.30
2015,04,21,12,50,16.30
2015,04,21,12,51,16.30
2015,04,21,12,52,16.40
2015,04,21,12,53,16.50
2015,04,21,12,54,16.60
2015,04,21,12,55,16.60
2015,04,21,12,56,16.70
2015,04,21,12,57,16.70
2015,04,21,12,58,16.70
2015,04,21,12,59,16.60
2015,04,21,13,00,16.60
2015,04,21,13,01,16.60
2015,04,21,13,02,16.60
2015,04,21,13,03,16.60
2015,04,21,13,04,16.50
2015,04,21,13,05,16.50
2015,04,21,13,06,16.50
2015,04,21,13,07,16.40
2015,04,21,13,08,16.30
2015,04,21,13,09,16.30
2015,04,21,13,10,16.30
2015,04,21,13,11,16.30
2015,04,21,13,12,16.20
2015,04,21,13,13,16.30
2015,04,21,13,14,16.30
2015,04,21,13,15,16.30
2015,04,21,13,16,16.30
2015,04,21,13,17,16.30
2015,04,21,13,18,16.30
2015,04,21,13,19,16.30
2015,04,21,13,20,16.30
2015,04,21,13,21,16.20
2015,04,21,13,22,16.20
2015,04,21,13,23,16.20
2015,04,21,13,24,16.20
2015,04,21,13,25,16.30
2015,04,21,13,26,16.30
2015,04,21,13,27,16.40
2015,04,21,13,28,16.40
2015,04,21,13,29,16.40
2015,04,21,13,30,16.40
2015,04,21,13,31,16.50
2015,04,21,13,32,16.50
2015,04,21,13,33,16.60
2015,04,21,13,34,16.60
2015,04,21,13,35,16.70
2015,04,21,13,36,16.80
2015,04,21,13,37,16.80
2015,04,21,13,38,16.90
2015,04,21,13,39,17.00
2015,04,21,13,40,17.00
2015,04,21,13,41,17.10
2015,04,21,13,42,17.20
2015,04,21,13,43,17.30
2015,04,21,13,44,17.30
2015,04,21,13,45,17.40
2015,04,21,13,46,17.40
2015,04,21,13,47,17.50
2015,04,21,13,48,17.50
2015,04,21,13,49,17.50
2015,04,21,13,50,17.40
2015,04,21,13,51,17.30
2015,04,21,13,52,17.20
2015,04,21,13,53,17.10
2015,04,21,13,54,17.10
2015,04,21,13,55,17.00
2015,04,21,13,56,17.00
2015,04,21,13,57,16.90
2015,04,21,13,58,16.90
2015,04,21,13,59,16.80
2015,04,21,14,00,16.70
2015,04,21,14,01,16.60
2015,04,21,14,02,16.60
2015,04,21,14,03,16.50
2015,04,21,14,04,16.50
2015,04,21,14,05,16.40
2015,04,21,14,06,16.30
2015,04,21,14,07,16.20
2015,04,21,14,08,16.10
2015,04,21,14,09,16.10
2015,04,21,14,10,16.10
2015,04,21,14,11,16.00
2015,04,21,14,12,16.00
2015,04,21,14,13,16.00
2015,04,21,14,14,16.00
2015,04,21,14,15,15.90
2015,04,21,14,16,15.90
2015,04,21,14,17,15.90
2015,04,21,14,18,15.80
2015,04,21,14,19,15.80
2015,04,21,14,20,15.70
2015,04,21,14,21,15.70
2015,04,21,14,22,15.60
2015,04,21,14,23,15.60
2015,04,21,14,24,15.60
2015,04,21,14,25,15.50
2015,04,21,14,26,15.50
2015,04,21,14,27,15.40
2015,04,21,14,28,15.30
2015,04,21,14,29,15.20
2015,04,21,14,30,15.20
2015,04,21,14,31,15.20
2015,04,21,14,32,15.20
2015,04,21,14,33,15.20
2015,04,21,14,34,15.20
2015,04,21,14,35,15.20
2015,04,21,14,36,15.20
2015,04,21,14,37,15.10
2015,04,21,14,38,15.10
2015,04,21,14,39,15.00
2015,04,21,14,40,15.00
2015,04,21,14,41,15.00
2015,04,21,14,42,15.00
2015,04,21,14,43,14.90
2015,04,21,14,44,14.80
2015,04,21,14,45,14.70
2015,04,21,14,46,14.60
2015,04,21,14,47,14.50
2015,04,21,14,48,14.50
2015,04,21,14,49,14.50
2015,04,21,14,50,14.50
2015,04,21,14,51,14.50
2015,04,21,14,52,14.50
2015,04,21,14,53,14.60
2015,04,21,14,54,14.60
2015,04,21,14,55,14.60
2015,04,21,14,56,14.70
2015,04,21,14,57,14.70
2015,04,21,14,58,14.70
2015,04,21,14,59,14.70
2015,04,21,15,00,14.80
2015,04,21,15,01,14.80
2015,04,21,15,02,14.80
2015,04,21,15,03,14.80
2015,04,21,15,04,14.90
2015,04,21,15,05,14.90
2015,04,21,15,06,15.00
2015,04,21,15,07,14.90
2015,04,21,15,08,14.80
2015,04,21,15,09,14.80
2015,04,21,15,10,14.80
2015,04,21,15,11,14.80
2015,04,21,15,12,14.80
2015,04,21,15,13,14.80
2015,04,21,15,14,14.80
2015,04,21,15,15,14.90
2015,04,21,15,16,14.90
2015,04,21,15,17,14.90
2015,04,21,15,18,14.90
2015,04,21,15,19,14.80
2015,04,21,15,20,14.80
2015,04,21,15,21,14.70
2015,04,21,15,22,14.60
2015,04,21,15,23,14.60
2015,04,21,15,24,14.60
2015,04,21,15,25,14.50
2015,04,21,15,26,14.50
2015,04,21,15,27,14.50
2015,04,21,15,28,14.50
2015,04,21,15,29,14.50
2015,04,21,15,30,14.40
2015,04,21,15,31,14.40
2015,04,21,15,32,14.40
2015,04,21,15,33,14.40
2015,04,21,15,34,14.40
2015,04,21,15,35,14.40
2015,04,21,15,36,14.40
2015,04,21,15,37,14.50
2015,04,21,15,38,14.40
2015,04,21,15,39,14.40
2015,04,21,15,40,14.40
2015,04,21,15,41,14.40
2015,04,21,15,42,14.40
2015,04,21,15,43,14.30
2015,04,21,15,44,14.30
2015,04,21,15,45,14.30
2015,04,21,15,46,14.20
2015,04,21,15,47,14.20
2015,04,21,15,48,14.20
2015,04,21,15,49,14.10
2015,04,21,15,50,14.10
2015,04,21,15,51,14.10
2015,04,21,15,52,14.00
2015,04,21,15,53,14.00
2015,04,21,15,54,13.90
2015,04,21,15,55,13.90
2015,04,21,15,56,13.80
2015,04,21,15,57,13.80
2015,04,21,15,58,13.80
2015,04,21,15,59,13.70
2015,04,21,16,00,13.70
2015,04,21,16,01,13.70
2015,04,21,16,02,13.70
2015,04,21,16,03,13.60
2015,04,21,16,04,13.60
2015,04,21,16,05,13.60
2015,04,21,16,06,13.50
2015,04,21,16,07,13.50
2015,04,21,16,08,13.40
2015,04,21,16,09,13.40
2015,04,21,16,10,13.30
2015,04,21,16,11,13.30
2015,04,21,16,12,13.20
2015,04,21,16,13,13.20
2015,04,21,16,14,13.10
2015,04,21,16,15,13.10
2015,04,21,16,16,13.00
2015,04,21,16,17,12.90
2015,04,21,16,18,12.90
2015,04,21,16,19,12.80
2015,04,21,16,20,12.80
2015,04,21,16,21,12.70
2015,04,21,16,22,12.70
2015,04,21,16,23,12.60
2015,04,21,16,24,12.60
2015,04,21,16,25,12.60
2015,04,21,16,26,12.50
2015,04,21,16,27,12.40
2015,04,21,16,28,12.30
2015,04,21,16,29,12.30
2015,04,21,16,30,12.20
2015,04,21,16,31,12.20
2015,04,21,16,32,12.10
2015,04,21,16,33,12.00
2015,04,21,16,34,12.00
2015,04,21,16,35,12.00
2015,04,21,16,36,11.90
2015,04,21,16,37,11.90
2015,04,21,16,38,11.90
2015,04,21,16,39,11.80
2015,04,21,16,40,11.80
2015,04,21,16,41,11.80
2015,04,21,16,42,11.80
2015,04,21,16,43,11.70
2015,04,21,16,44,11.70
2015,04,21,16,45,11.70
2015,04,21,16,46,11.60
2015,04,21,16,47,11.60
2015,04,21,16,48,11.60
2015,04,21,16,49,11.50
2015,04,21,16,50,11.50
2015,04,21,16,51,11.40
2015,04,21,16,52,11.40
2015,04,21,16,53,11.40
2015,04,21,16,54,11.40
2015,04,21,16,55,11.40
2015,04,21,16,56,11.30
2015,04,21,16,57,11.30
2015,04,21,16,58,11.30
2015,04,21,16,59,11.30
2015,04,21,17,00,11.20
2015,04,21,17,01,11.20
2015,04,21,17,02,11.20
2015,04,21,17,03,11.20
2015,04,21,17,04,11.10
2015,04,21,17,05,11.10
2015,04,21,17,06,11.00
2015,04,21,17,07,11.00
2015,04,21,17,08,10.90
2015,04,21,17,09,10.90
2015,04,21,17,10,10.90
2015,04,21,17,11,10.90
2015,04,21,17,12,10.90
2015,04,21,17,13,10.90
2015,04,21,17,14,10.90
2015,04,21,17,15,10.90
2015,04,21,17,16,10.90
2015,04,21,17,17,10.90
2015,04,21,17,18,10.90
2015,04,21,17,19,10.90
2015,04,21,17,20,10.90
2015,04,21,17,21,10.90
2015,04,21,17,22,10.90
2015,04,21,17,23,10.90
2015,04,21,17,24,11.00
2015,04,21,17,25,11.00
2015,04,21,17,26,11.10
2015,04,21,17,27,11.10
2015,04,21,17,28,11.10
2015,04,21,17,29,11.10
2015,04,21,17,30,11.20
2015,04,21,17,31,11.20
2015,04,21,17,32,11.20
2015,04,21,17,33,11.20
2015,04,21,17,34,11.20
2015,04,21,17,35,11.20
2015,04,21,17,36,11.20
2015,04,21,17,37,11.30